N1261P E98-KABQ

Flight info

Callsign N1261P
Flight time N/A
Altitude 4000
Route ZZZZZ
Aircraft C172/L-V/N

Departure

Time 2026-04-18 16:58
Airport Mid Valley Airpark (E98)

Arrival

Time N/A
Airport Albuquerque International Sunport (KABQ)
Time Latitude Longitude Altitude Speed Heading
2026-04-18 16:37 34.75660 -106.74503 4866 ft 0 kts 88°
2026-04-18 16:50 34.75705 -106.74468 4866 ft 3 kts 57°
2026-04-18 16:50 34.75803 -106.74422 4868 ft 21 kts 14°
2026-04-18 16:50 34.75927 -106.74397 4866 ft 19 kts
2026-04-18 16:51 34.75985 -106.74384 4865 ft 0 kts 11°
2026-04-18 16:51 34.75989 -106.74405 4861 ft 10 kts 204°
2026-04-18 16:51 34.75959 -106.74403 4866 ft 8 kts 166°
2026-04-18 16:51 34.75660 -106.74503 4865 ft 0 kts 88°
2026-04-18 16:52 34.75706 -106.74460 4866 ft 22 kts 21°
2026-04-18 16:52 34.75845 -106.74408 4867 ft 22 kts 10°
2026-04-18 16:53 34.75982 -106.74392 4864 ft 17 kts 335°
2026-04-18 16:53 34.75660 -106.74503 4866 ft 0 kts 88°
2026-04-18 16:53 34.75672 -106.74495 4866 ft 0 kts
2026-04-18 16:53 34.75660 -106.74503 4866 ft 0 kts 88°
2026-04-18 16:54 34.75605 -106.74500 4866 ft 19 kts 192°
2026-04-18 16:54 34.75646 -106.74496 4866 ft 8 kts 223°
2026-04-18 16:54 34.75647 -106.74516 4866 ft 1 kts 233°
2026-04-18 16:55 34.75660 -106.74503 4866 ft 0 kts 88°
2026-04-18 16:55 34.75593 -106.74516 4866 ft 8 kts 276°
2026-04-18 16:55 34.75565 -106.74611 4867 ft 16 kts 191°
2026-04-18 16:56 34.75550 -106.74599 4866 ft 5 kts 342°
2026-04-18 16:56 34.75600 -106.74602 4868 ft 10 kts
2026-04-18 16:56 34.75625 -106.74597 4869 ft 0 kts
2026-04-18 16:57 34.75626 -106.74597 4869 ft 1 kts
2026-04-18 16:57 34.75771 -106.74566 4870 ft 43 kts 10°
2026-04-18 16:57 34.76176 -106.74481 4902 ft 68 kts 11°
2026-04-18 16:57 34.76645 -106.74369 5088 ft 63 kts
2026-04-18 16:58 34.77102 -106.74294 5226 ft 72 kts
2026-04-18 16:58 34.77568 -106.74268 5456 ft 68 kts 359°
2026-04-18 16:58 34.78056 -106.74222 5632 ft 70 kts
2026-04-18 16:58 34.78471 -106.74469 5671 ft 90 kts 291°
2026-04-18 16:59 34.78533 -106.75223 5883 ft 82 kts 279°
2026-04-18 16:59 34.78507 -106.75862 5988 ft 78 kts 273°
2026-04-18 16:59 34.78204 -106.76389 5967 ft 94 kts 201°
2026-04-18 16:59 34.77530 -106.76627 5896 ft 97 kts 192°
2026-04-18 17:00 34.76872 -106.76738 5941 ft 87 kts 186°
2026-04-18 17:00 34.76257 -106.76773 5858 ft 85 kts 181°
2026-04-18 17:00 34.75648 -106.76798 5705 ft 92 kts 180°
2026-04-18 17:00 34.75014 -106.76818 5606 ft 90 kts 184°
2026-04-18 17:01 34.74371 -106.76836 5425 ft 96 kts 168°
2026-04-18 17:01 34.73985 -106.76305 5279 ft 84 kts 98°
2026-04-18 17:01 34.73917 -106.75626 5170 ft 78 kts 73°